Voltar ao catálogo

YAOGAN-33 04

AtivoMilitarSSO
NORAD 57958·PAYLOAD·🇨🇳 China

Lançado Sep 26, 2023 de Jiuquan Satellite Launch Center

Loading…

Próximas Passagens (próximas 24 horas)

TLE

AtualizadoSource: Space-Track

Época: Sep 14, 2026, 23:33 UTC

1 57958U 23149A   26257.98134953  .00000352  00000-0  85065-4 0  9995
2 57958  98.2046 206.2207 0002089  83.5491 276.5946 14.58800046158091

Acompanhe YAOGAN-33 04 em tempo real com AllMySat

Download on the App Store